Regional Weather Roundup
Issued by NWS

Home | Current Version | Previous Version | Graphics & Text | Print | Product List | Glossary On
Versions: 1 2 3 4 5 6 7 8 9 10 11 12 13 14 15 16 17 18 19 20 21 22 23 24 25 26 27 28 29 30 31 32 33 34 35 36 37 38 39 40 41 42 43 44 45 46 47 48 49 50
000
ASUS43 KIND 252059
RWRIN

WEATHER ROUNDUP FOR INDIANA
NATIONAL WEATHER SERVICE INDIANAPOLIS IN
400 PM EST SUN JAN 25 2015

NOTE: "FAIR" INDICATES FEW OR NO CLOUDS BELOW 12,000 FEET WITH NO
SIGNIFICANT WEATHER AND/OR OBSTRUCTIONS TO VISIBILITY.

* - STATION DOES NOT REPORT WEATHER SUCH AS PRECIPITATION OR FOG.

+ - STATION NOT QUALITY CONTROLLED BY THE NATIONAL WEATHER SERVICE.
    USE DATA WITH CAUTION...ESPECIALLY DEWPOINT AND RELATIVE
    HUMIDITY OBSERVATIONS.

INZ001>003-010>013-019-020-252200-
NORTHWEST INDIANA

CITY           SKY/WX    TMP DP  RH WIND       PRES   REMARKS
GARY /AIRPORT/ LGT SNOW  30  25  80 NE17G29   29.83R WCI  18
VALPARAISO     LGT SNOW  28  27  93 NE12      29.80R FOG     WCI  18

$$

LMZ046-743>745-252200-
SOUTHERN LAKE MICHIGAN

STATION/POSITION TIME  TEMP WIND        PRES
                       AIR  DIR/SP/G
                 (UTC) (F)  (DEG/KT/KT) (MB)
MICHIGAN CITY    2000   27   20/ 21/ 23   N/A

$$

INZ004-005-014>016-021>024-252200-
NORTH CENTRAL INDIANA

CITY           SKY/WX    TMP DP  RH WIND       PRES   REMARKS
GOSHEN         LGT SNOW  26  22  84 NE18      29.81R VSB 1   WCI  13
SOUTH BEND     LGT SNOW  28  24  85 NE7       29.82R FOG     WCI  21

$$

INZ006>009-017-018-025>027-252200-
NORTHEAST INDIANA

CITY           SKY/WX    TMP DP  RH WIND       PRES   REMARKS
ANGOLA *+      CLOUDY    23  19  86 E15       29.81R WCI  10
FORT WAYNE     LGT SNOW  25  21  85 NE21      29.78R VSB 1   WCI  11

$$

INZ028-029-035-036-043>045-051>053-252200-
WEST CENTRAL INDIANA

CITY           SKY/WX    TMP DP  RH WIND       PRES   REMARKS
GREENCASTLE +  CLOUDY    37  32  81 NE6       29.62R
LAFAYETTE      LGT SNOW  30  28  92 NE22G29   29.69R FOG     WCI  17
TERRE HAUTE    LGT RAIN  39  37  92 NE5       29.63R FOG

$$

INZ030>032-037>040-046>048-054>057-064-065-252200-
CENTRAL INDIANA

CITY           SKY/WX    TMP DP  RH WIND       PRES   REMARKS
INDIANAPOLIS   CLOUDY    35  33  92 NE12      29.63R FOG     WCI  27
-EAGLE CREEK   MIX PCPN  35  33  92 NE9       29.64R FOG     WCI  28
KOKOMO *+      CLOUDY    28  25  86 E22       29.72R WCI  15
MT COMFORT *+  CLOUDY    34 N/A N/A NE9       29.65R WCI  26
SHELBYVILLE    LGT RAIN  38  35  89 E8        29.63R FOG

$$

INZ033-034-041-042-049-050-058-059-252200-
EAST CENTRAL INDIANA

CITY           SKY/WX    TMP DP  RH WIND       PRES   REMARKS
MUNCIE         SNOW      32  30  92 E18       29.69R VSB 1/2 WCI  20

$$

INZ060-061-067>069-081>083-085>088-252200-
SOUTHWEST INDIANA

CITY           SKY/WX    TMP DP  RH WIND       PRES   REMARKS
EVANSVILLE     LGT RAIN  43  40  89 S7        29.60S FOG
HUNTINGBURG *+ CLOUDY    41  37  87 S7        29.61S

$$

INZ062-063-066-070>080-084-089>092-252200-
SOUTH CENTRAL AND SOUTHEAST INDIANA

CITY           SKY/WX    TMP DP  RH WIND       PRES   REMARKS
BLOOMINGTON    LGT RAIN  39  37  92 SE3       29.61R

$$



USA.gov is the U.S. government's official web portal to all federal, state and local government web resources and services.